Location: *
(48.7358°N, 0.3111°E)
Time: 14:51:53
(UTC+00:00)

Meteor 2-17 Rocket - Pass Details

Date: 22 October 2019
Orbit: 935 x 956 km, 82.5° (Epoch: 14 November)

Event Time Altitude Azimuth Distance (km) Brightness Sun altitude
Rises 05:21:01 0° 196° (SSW) 3,593 7.3 -11.9°
Reaches altitude 10° 05:23:31 10° 199° (SSW) 2,650 6.6 -11.5°
Maximum altitude 05:29:33 68° 282° (WNW) 1,009 4.4 -10.5°
Drops below altitude 10° 05:35:36 10° 6° (N) 2,658 6.8 -9.5°
Sets 05:38:07 0° 9° (N) 3,606 7.5 -9.1°
